Regional Weather Roundup
Issued by NWS Portland, ME

Home | Current Version | Previous Version | Text Only | Print | Product List | Glossary On
Versions: 1 2 3 4 5 6 7 8 9 10 11 12 13 14 15 16 17 18 19 20 21 22 23 24 25 26 27 28 29 30 31 32 33 34 35 36 37 38 39 40 41 42 43 44 45 46 47 48 49 50
000
ASUS41 KGYX 272305
RWRGYX
WEATHER ROUNDUP FOR MAINE AND NEW HAMPSHIRE
NATIONAL WEATHER SERVICE GRAY ME
700 PM EDT TUE SEP 27 2016

MEZ002-005-006-010-012-015-018-020-021-024-026-027-029-280000-
MAINE

CITY           SKY/WX    TMP DP  RH WIND       PRES   REMARKS
PORTLAND       MOCLDY    61  57  87 S3        29.94R
SANFORD        CLEAR     60  59  96 S3        29.94R
BAR HARBOR     CLOUDY   N/A N/A N/A NE6       29.97R
WISCASSET      CLEAR     61  56  83 SE3       29.96R
ROCKLAND       CLOUDY    56  54  93 E5        29.96R
FRYEBURG       PTCLDY    56  53  90 CALM      29.93R
LEWISTONAUBURN CLEAR     63  54  72 SE6       29.94R
AUGUSTA        CLEAR     62  54  74 E5        29.95R
WATERVILLE     CLEAR     58  54  86 NE3       29.93R
BANGOR         PTCLDY    53  52  96 CALM      29.96R
GREENVILLE       N/A     52  50  93 VRB3      29.96R
MILLINOCKET    CLOUDY    55  48  77 NE6       30.00R
HOULTON        CLOUDY    51  45  79 NE5       30.03R
PRESQUE ISLE   CLOUDY    50  44  80 SE5       30.06R
FRENCHVILLE    CLOUDY    48  42  80 NE12G17   30.04R
CARIBOU        CLOUDY    50  44  80 E8        30.05R
$$

NHZ002-005-008-009-011-012-014-280000-
NEW HAMPSHIRE

CITY           SKY/WX    TMP DP  RH WIND       PRES   REMARKS
PORTSMOUTH     PTCLDY    61  57  88 E7        29.92R
ROCHESTER      CLEAR     63  59  87 S3        29.92R
NASHUA         PTCLDY    63  58  83 CALM      29.93R
MANCHESTER     PTCLDY    66  51  58 E3        29.91R
CONCORD        CLEAR     61  52  72 S3        29.93R
LACONIA        CLEAR     58  53  84 CALM      29.94R
PLYMOUTH       FAIR      55  51  87 CALM      29.93R
BERLIN         CLEAR     54  50  86 CALM      29.94R
WHITEFIELD     CLEAR     54  50  86 CALM      29.94R
JAFFREY        CLEAR     58  54  86 CALM      29.96R
KEENE          CLEAR     57  55  93 CALM      29.94R
LEBANON        CLEAR     58  55  90 CALM      29.92R
MT WASHINGTON  PTCLDY    41  37  87 S6          N/A
$$

VTZ005-007-008-280000-
VERMONT

CITY           SKY/WX    TMP DP  RH WIND       PRES   REMARKS
ST JOHNSBURY     N/A     60  53  77 MISG      29.92R
MONTPELIER     MOCLDY    57  48  72 S5        29.97R
BURLINGTON     MOCLDY    64  49  57 S6        29.91R
$$

MAZ007-012-024-CTZ003-RIZ002-NYZ038-NYZ072-280000-
SOUTHERN NEW ENGLAND AND NY

CITY           SKY/WX    TMP DP  RH WIND       PRES   REMARKS
BOSTON         PTCLDY    63  60  90 SE10      29.93R
WORCESTER      CLEAR     63  55  75 SW3       29.94R
NANTUCKET      CLOUDY    66  64  93 SW6       29.93R FOG
PROVIDENCE     MOCLDY    67  61  81 S8        29.93R
HARTFORD       PTCLDY    68  55  63 SE5       29.91R
ALBANY         PTCLDY    64  50  60 CALM      29.91R
NEW YORK CITY  PTCLDY    71  60  68 S13       29.90R
$$

ANZ081-ANZ082-ANZ150-NHZ014-MEZ023>029-280000-
COASTAL MARINE OBSERVATIONS

STATION/POSITION TIME  TEMP    WIND        PRES    WAVE
                       AIR SEA DIR/SP/G            HT/PER
                 (UTC) (F)     (DEG/KT/KT) (MB)    (FT/S)
MOUNT DESERT ROC 2200   56      20/  8/  8 1014.1R
MATINICUS ROCK   2200   58      50/ 12/ 12 1013.5R
ISLE OF SHOALS   2200   62      90/  9/  9 1012.8R
JEFFREYS LEDGE   2238      62                N/A     2/ 5
CASHES LEDGE BUO 2150   58 60  340/  6/  8 1013.7    4/ 6
GEORGES BANK BUO 2150   68 62              1014.6    8/ 8
$$

.............KEY..............
   WCI - WIND CHILL
   TC  - TEMPERATURE IN CELSIUS
   VSB - VISIBILITY IN MILES
   HX  - HEAT INDEX
   FAIR- INDICATES FEW OR NO CLOUDS BELOW 12,000 FT, WITH NO
         SIGNIFICANT WEATHER AND/OR OBSTRUCTIONS TO VISIBILITY.






USA.gov is the U.S. government's official web portal to all federal, state and local government web resources and services.